Location: Campavaglio
(41.1333°N, 9.2333°E)
Time: 23:30:32
(UTC+00:00)

Cosmos 2150 Rocket - Pass Details

Date: 07 June 2020
Orbit: 750 x 807 km, 74.0° (Epoch: 11 July)

Event Time Altitude Azimuth Distance (km) Brightness Sun altitude
Rises 01:25:41 0° 333° (NNW) 3,210 7.7 -19.9°
Reaches altitude 10° 01:28:10 10° 326° (NW) 2,278 6.8 -19.7°
Maximum altitude 01:32:57 40° 258° (WSW) 1,101 4.5 -19.2°
Enters shadow 01:33:55 36° 231° (SW) 1,172 4.4 -19.1°
